Starlink 31999

operational
NORAD ID: 60101 Int'l Des: 2024-117 Owner: SPXS Country: US Constellation: starlink
LEOCIRCULAR

Über Starlink 31999

Beschreibung wird geladen...

Live-Position

3D-Globus wird geladen...

Nächste Überflüge

Höhenverlauf

Altitude vs Time

uPlot chart will show altitude changes over time

Zweizeiliger Elementsatz

1 60101U 24117L 25350.48437345 .00001117 00000-0 49854-4 0 9990
2 60101 53.1599 63.8717 0001198 94.9261 265.1877 15.30194936 84148
Epoch: 16. Dez. 2025 • Age: 23 hours

Aktueller Status

Höhe 494.6 km
Geschwindigkeit 7.62 km/s
Subsatellitenpunkt -53.24°S, 85.97°E
Startdatum 23. Juni 2024
Alter 1.4 years
Typ internet

Technische Details

Klassifizierung Payload
Masse 730.00 kg
Trockenmasse 700.00 kg
Gesamtmasse 730.00 kg
Länge 0.30 m
Durchmesser 4.10 m
Spannweite 29.00 m
Form Box + pan
Hersteller SPXS
Bus-Typ Starlink V2M
Phasenstatus In Orbit
Besitzer/Staat SPXS/US

Große Konstellationen

Loading constellations...